Location: Karcze
(52.0945°N, 22.4786°E)
Time: 01:29:51
(UTC+00:00)

A-11 Canister half - Pass Details

Date: 07 August 2021
Orbit: 1514 x 1685 km, 47.2° (Epoch: 16 September)

Event Time Altitude Azimuth Distance (km) Brightness Sun altitude
Rises 20:48:02 0° 287° (WNW) 4,895 12.3 -17.8°
Reaches altitude 10° 20:51:59 10° 274° (W) 3,924 11.5 -18.1°
Maximum altitude 20:59:17 23° 227° (SW) 3,007 10.3 -18.6°
Enters shadow 21:04:04 17° 192° (SSW) 3,438 10.4 -18.9°
Drops below altitude 10° 21:06:38 10° 180° (S) 3,942 - -19.0°
Sets 21:10:39 0° 167° (SSE) 4,921 - -19.3°
